Home > Weather > South Korea > Incheon > Past weeks

Flag for South Korea Weather past 2 weeks in Incheon, South Korea

52 °F

Rain. Fog.

Feels Like: 47 °F
Forecast: 34 / 39 °F
Wind: 13 mph from Southwest

Location: Incheon International Airport

Current Time: Dec 2, 2015 at 11:01:28 AM

Latest Report: Dec 2, 2015 at 9:30 AM

Visibility: 3 mi

Pressure: 29.95 "Hg

Humidity: 88%

Dew point: 48 °F

Location of IncheonLocation

Historic Weather in Incheon — Graph


Incheon temperature yesterday

Maximum temperature yesterday: 48 °F (at 2:30 PM)
Minimum temperature yesterday: 30 °F (at 6:30 AM)
Average temperature yesterday: 39 °F

Past Weeks' High & Low Weather Summary

High63 °F (Nov 17, 1:00 PM)93% (Nov 25, 6:30 AM)30.45 "Hg (Nov 25, 6:30 AM)
Low25 °F (Nov 27, 1:00 AM)29% (Dec 1, 4:00 PM)29.95 "Hg (Dec 2, 9:00 AM)
Average42 °F69%30.23 "Hg
* Reported Nov 17 9:00 AM — Dec 2 9:30 AM, Incheon, Weather by CustomWeather, © 2015

Note: Actual official high and low records may vary slightly from our data, if they occured in-between our weather recording intervals... More about our weather records


Incheon weather history for previous 24 hours

Time TempWeatherWind HumidityBarometerVisibility
9:30 AM
Wed, Dec 2
52 °FRain. Fog.13 mph88%29.95 "Hg2 mi
9:00 AM50 °FRain. Fog.14 mph88%29.95 "Hg1 mi
8:30 AM48 °FLight rain. Fog.18 mph87%29.98 "Hg1 mi
8:00 AM46 °FRain. Fog.17 mph87%29.98 "Hg1 mi
7:00 AM45 °FLight rain. Fog.12 mph81%30.01 "Hg1 mi
6:30 AM45 °FLight rain. Fog.10 mph81%30.01 "Hg2 mi
6:00 AM46 °FLight rain. Fog.10 mph71%30.04 "Hg3 mi
5:30 AM46 °FLight rain. Fog.12 mph66%30.04 "Hg3 mi
5:00 AM46 °FLight rain. Mostly cloudy.8 mph66%30.07 "Hg4 mi
4:30 AM46 °FMostly cloudy.9 mph62%30.07 "Hg4 mi
4:00 AM45 °FMostly cloudy.10 mph66%30.09 "Hg4 mi
3:30 AM45 °FMostly cloudy.9 mph61%30.09 "Hg4 mi
3:00 AM45 °FMostly cloudy.10 mph61%30.12 "Hg4 mi
2:30 AM45 °FMostly cloudy.12 mph61%30.12 "Hg4 mi
2:00 AM45 °FMostly cloudy.9 mph66%30.15 "Hg4 mi
1:30 AM45 °FMostly cloudy.9 mph66%30.12 "Hg4 mi
1:00 AM43 °FPartly cloudy.9 mph61%30.15 "Hg4 mi
12:30 AM45 °FPartly cloudy.9 mph57%30.15 "Hg4 mi
12:00 AM43 °FPartly cloudy.8 mph61%30.18 "Hg4 mi
11:30 PM
Tue, Dec 1
41 °FPartly cloudy.9 mph57%30.18 "Hg4 mi
11:00 PM41 °FPartly cloudy.6 mph57%30.21 "Hg4 mi
10:30 PM39 °FPartly cloudy.6 mph65%30.21 "Hg4 mi
10:00 PM39 °FPartly cloudy.6 mph65%30.21 "Hg4 mi
9:30 PM39 °FClear.5 mph56%30.21 "Hg6 mi
9:00 PM39 °FClear.6 mph52%30.21 "Hg6 mi
8:30 PM39 °FClear.2 mph52%30.21 "Hg6 mi
8:00 PM43 °FClear.2 mph42%30.21 "Hg6 mi
7:30 PM41 °FClear.2 mph45%30.21 "Hg6 mi
7:00 PM41 °FClear.2 mph45%30.21 "Hg6 mi
6:30 PM45 °FClear.2 mph34%30.21 "Hg6 mi
6:00 PM45 °FClear.2 mph31%30.21 "Hg6 mi
5:30 PM43 °FClear.2 mph34%30.21 "Hg6 mi
5:00 PM46 °FClear.6 mph32%30.21 "Hg6 mi
4:00 PM48 °FClear.7 mph29%30.21 "Hg5 mi
3:30 PM48 °FClear.6 mph34%30.21 "Hg5 mi
3:00 PM48 °FClear.5 mph37%30.24 "Hg4 mi
2:30 PM48 °FClear.6 mph43%30.24 "Hg4 mi
2:00 PM46 °FClear.8 mph43%30.24 "Hg4 mi
1:30 PM46 °FClear.7 mph43%30.24 "Hg4 mi
1:00 PM46 °FClear.6 mph40%30.27 "Hg4 mi
12:30 PM45 °FClear.7 mph46%30.27 "Hg4 mi
12:00 PM45 °FClear.7 mph46%30.30 "Hg4 mi
11:30 AM43 °FHaze.7 mph57%30.33 "Hg3 mi
11:00 AM41 °FHaze.6 mph61%30.33 "Hg3 mi
Weather by CustomWeather, © 2015

See weather overviewHow to use our weather pages